Sault Ste Marie, MI

9:01 PM EDT on October 16, 2017 (GMT -0400)
Sault Ste Marie Municipal / Sanderson Field

Weather History for KANJ - August, 2014

Change the Weather History Date:

Sunday, August 31, 2014

  Actual Average Record
Temperature  
Mean Temperature 66 °F 62 °F  
Max Temperature 72 °F 72 °F 89 °F (2000)
Min Temperature 59 °F 52 °F 37 °F (1967)
Degree Days  
Heating Degree Days 0 4  
Month to date heating degree days 70 77  
Since 1 June heating degree days 290 327  
Since 1 July heating degree days 181 147  
Cooling Degree Days 1 1  
Month to date cooling degree days 48 65  
Year to date cooling degree days 108 178  
Since 1 June cooling degree days 106 173  
Growing Degree Days 16 (Base 50)    
Moisture  
Dew Point 60 °F    
Average Humidity 81    
Maximum Humidity 100    
Minimum Humidity 61    
Precipitation  
Precipitation 0.00 in 0.11 in 1.06 in (1938)
Month to date precipitation 2.48 3.17  
Year to date precipitation 18.92 19.17  
Sea Level Pressure  
Sea Level Pressure 29.84 in    
Wind  
Wind Speed 4 mph (West)    
Max Wind Speed 10 mph    
Max Gust Speed 13 mph    
Visibility 8 miles    
Events      
T = Trace of Precipitation, MM = Missing Value Source: NWS Daily Summary

Daily Weather History Graph

Daily Weather History Graph

Search for Another Location

Airport or City:

Trip Planner

Search our weather history database for the weather conditions in past years. The results will help you decide how hot, cold, wet, or windy it might be!

Date:

Astronomy

Aug. 31, 2014 Rise Set
Actual Time 6:56 AM EDT 8:18 PM EDT
Civil Twilight 6:25 AM EDT 8:49 PM EDT
Nautical Twilight 5:47 AM EDT 9:27 PM EDT
Astronomical Twilight 5:06 AM EDT 10:07 PM EDT
Moon 1:03 PM EDT (8/31) 11:10 PM EDT (8/31)
Length of Visible Light 14h 24m
Length of Day
13h 22m
Waxing Crescent, 32% of the Moon is Illuminated
Aug 31
Waxing Crescent
Sep 2
First Quarter
Sep 8
Full
Sep 15
Last Quarter
Sep 24
New

Hourly Weather History & Observations

Time (EDT) Temp. Dew Point Humidity Pressure Visibility Wind Dir Wind Speed Gust Speed Precip Events Conditions
12:27 AM 63.0 °F 61.0 °F 93% 29.74 in 1.8 mi West 9.2 mph - 0.00 in   Overcast
12:42 AM 62.1 °F 61.0 °F 96% 29.74 in 0.8 mi West 6.9 mph - 0.00 in   Mist
12:55 AM 62.1 °F 61.0 °F 96% 29.74 in 0.8 mi West 6.9 mph - 0.00 in   Mist
1:32 AM 62.1 °F 61.0 °F 96% 29.76 in 1.2 mi West 5.8 mph - N/A   Overcast
1:50 AM 62.6 °F 60.8 °F 94% 29.76 in 0.8 mi West 4.6 mph - N/A   Mist
1:55 AM 62.1 °F 61.0 °F 96% 29.75 in 1.0 mi WSW 4.6 mph - N/A   Mist
2:20 AM 62.1 °F 61.0 °F 96% 29.77 in 2.5 mi West 4.6 mph - N/A   Overcast
2:42 AM 62.1 °F 61.0 °F 96% 29.77 in 5.0 mi WNW 5.8 mph - N/A   Overcast
2:55 AM 63.0 °F 62.1 °F 97% 29.77 in 7.0 mi WNW 3.5 mph - N/A   Overcast
3:13 AM 63.0 °F 62.1 °F 97% 29.78 in 9.0 mi NW 3.5 mph - N/A   Overcast
3:55 AM 63.0 °F 62.1 °F 97% 29.78 in 9.0 mi Calm Calm - N/A   Overcast
4:03 AM 63.0 °F 62.1 °F 97% 29.80 in 8.0 mi West 4.6 mph - N/A   Overcast
4:55 AM 62.1 °F 60.1 °F 93% 29.79 in 10.0 mi Calm Calm - N/A   Overcast
5:03 AM 62.1 °F 60.1 °F 93% 29.80 in 10.0 mi Calm Calm - N/A   Overcast
5:11 AM 62.1 °F 60.1 °F 93% 29.81 in 10.0 mi Calm Calm - N/A   Overcast
5:55 AM 62.1 °F 60.1 °F 93% 29.81 in 10.0 mi West 4.6 mph - N/A   Overcast
6:41 AM 62.1 °F 60.1 °F 93% 29.84 in 10.0 mi WNW 4.6 mph - N/A   Overcast
6:55 AM 62.1 °F 60.1 °F 93% 29.84 in 10.0 mi WNW 4.6 mph - N/A   Overcast
7:05 AM 62.1 °F 60.1 °F 93% 29.85 in 10.0 mi NW 3.5 mph - N/A   Overcast
7:15 AM 62.1 °F 60.1 °F 93% 29.86 in 10.0 mi NW 4.6 mph - N/A   Overcast
7:55 AM 62.1 °F 60.1 °F 93% 29.86 in 10.0 mi NW 3.5 mph - N/A   Overcast
8:55 AM 64.0 °F 57.9 °F 80% 29.87 in 10.0 mi North 5.8 mph - N/A   Overcast
9:55 AM 64.9 °F 59.0 °F 81% 29.88 in 10.0 mi North 3.5 mph - N/A   Overcast
10:55 AM 64.0 °F 59.0 °F 84% 29.89 in 10.0 mi West 3.5 mph - N/A   Overcast
11:27 AM 66.0 °F 59.0 °F 78% 29.91 in 9.0 mi Calm Calm - N/A   Overcast
11:55 AM 66.9 °F 59.0 °F 76% 29.91 in 10.0 mi Variable 3.5 mph - N/A   Overcast
12:55 PM 66.0 °F 59.0 °F 78% 29.90 in 10.0 mi West 3.5 mph - N/A   Overcast
1:55 PM 68.0 °F 59.0 °F 73% 29.89 in 10.0 mi WNW 6.9 mph - N/A   Overcast
2:55 PM 69.1 °F 60.1 °F 73% 29.89 in 10.0 mi WSW 6.9 mph - N/A   Overcast
3:55 PM 69.1 °F 57.9 °F 68% 29.89 in 10.0 mi WNW 6.9 mph - N/A   Overcast
4:55 PM 71.1 °F 57.9 °F 63% 29.89 in 10.0 mi Calm Calm - N/A   Mostly Cloudy
5:15 PM 72.0 °F 59.0 °F 64% 29.90 in 10.0 mi WNW 3.5 mph - N/A   Scattered Clouds
5:55 PM 70.0 °F 59.0 °F 68% 29.89 in 10.0 mi WNW 4.6 mph - N/A   Overcast
6:55 PM 70.0 °F 59.0 °F 68% 29.89 in 10.0 mi SE 3.5 mph - N/A   Overcast
7:16 PM 69.1 °F 60.1 °F 73% 29.88 in 10.0 mi ESE 4.6 mph - N/A   Mostly Cloudy
7:28 PM 68.0 °F 61.0 °F 78% 29.88 in 10.0 mi ESE 4.6 mph - N/A   Scattered Clouds
7:36 PM 68.0 °F 61.0 °F 78% 29.88 in 10.0 mi ESE 4.6 mph - N/A   Mostly Cloudy
7:55 PM 68.0 °F 61.0 °F 78% 29.88 in 10.0 mi SSW 6.9 mph - N/A   Overcast
8:22 PM 66.0 °F 60.1 °F 81% 29.90 in 10.0 mi South 4.6 mph - N/A   Scattered Clouds
8:55 PM 64.0 °F 60.1 °F 87% 29.90 in 10.0 mi SSW 4.6 mph - N/A   Scattered Clouds
9:55 PM 62.1 °F 59.0 °F 90% 29.89 in 10.0 mi SSE 3.5 mph - N/A   Clear
10:55 PM 61.0 °F 57.9 °F 90% 29.86 in 10.0 mi ESE 3.5 mph - N/A   Clear